[[{"header":{"parameterUnit":"m.s-1","parameterCategory":1,"la1":30.2992,"la2":30.254,"lo1":-89.0895,"lo2":-89.0443,"dy":0.0025,"dx":0.0025,"nx":19,"ny":19,"refTime":"2026-03-25T21:00:00:Z","depth":0,"parameterNumber":2,"parameterNumberName":"U-component_of_WINDS"},"data":[0,0,0,-1.0693,-1.0694,-1.0721,-1.0722,-1.0762,-1.0762,0,0,0,0,0,0,0,0,0,0,0,-1.0687,-1.0687,-1.0693,-1.0694,-1.0721,-1.0722,-1.0762,-1.0762,0,0,0,0,0,0,0,0,0,0,0,-1.0687,-1.0687,-1.0687,-1.0694,-1.0721,-1.0722,-1.0762,-1.0739,0,0,0,0,0,0,0,0,0,0,-1.0712,-1.0707,-1.0687,-1.0687,-1.0694,-1.0721,-1.0722,-1.0738,-1.0741,-1.0751,0,-1.076,0,-1.0761,-1.0765,-1.0765,0,0,0,-1.0693,-1.0705,-1.0711,-1.0688,-1.0694,-1.0721,-1.0709,-1.0739,-1.0742,-1.0754,-1.076,-1.0762,-1.0762,-1.0765,-1.0765,-1.0827,-1.0827,0,0,-1.0691,-1.0693,-1.0709,-1.0713,-1.0708,-1.0708,-1.071,-1.0741,-1.0748,-1.076,-1.0762,-1.0763,-1.0766,-1.0766,-1.0827,-1.0827,0,0,0,-1.0688,-1.0692,-1.0697,-1.0711,-1.0716,-1.0709,-1.0711,-1.0747,-1.0748,-1.0763,-1.0763,-1.0766,-1.0766,-1.0826,-1.0827,-1.0845,0,0,0,-1.0687,-1.069,-1.0696,-1.0698,-1.0715,-1.0731,-1.0715,-1.0746,-1.0749,-1.0763,-1.0766,-1.0767,-1.0826,-1.0827,-1.0844,-1.0854,0,0,0,-1.0684,-1.069,-1.0694,-1.0698,-1.0709,-1.0731,-1.0734,-1.0746,-1.075,-1.0765,-1.0767,-1.0826,-1.0826,-1.0843,-1.0852,-1.0871,0,0,0,-1.0683,-1.071,-1.0694,-1.0725,-1.0709,-1.0742,-1.0734,-1.0758,-1.0773,-1.0766,-1.0826,-1.0827,-1.0842,-1.0851,-1.087,-1.0887,-1.0895,0,0,-1.0718,-1.0714,-1.0732,-1.0719,-1.0755,-1.0737,-1.0776,-1.0789,-1.0789,-1.0815,-1.0816,-1.0844,-1.0852,-1.0871,-1.0935,-1.0941,0,0,0,-1.0744,-1.0757,-1.0766,-1.0781,-1.0791,-1.0801,-1.0808,-1.0813,-1.0834,-1.0802,-1.0856,-1.0861,-1.0872,-1.088,-1.0885,-1.0895,-1.0831,-1.083,-1.083,-1.0797,-1.0796,-1.0826,-1.0828,-1.0842,-1.0849,-1.0861,-1.0869,-1.0864,-1.0877,-1.0884,-1.0923,-1.0933,-1.0937,-1.0947,-1.0893,-1.0893,-1.0893,-1.0893,-1.0849,-1.0868,-1.086,-1.0886,-1.0885,-1.0908,-1.0916,-1.0912,-1.0933,-1.0917,-1.0927,-1.091,-1.0943,-1.0952,-1.0895,-1.0895,-1.0894,-1.0894,-1.0894,-1.0884,-1.0892,-1.0898,-1.0919,-1.0936,-1.0938,-1.0959,-1.0957,-1.0956,-1.0966,-1.0974,-1.0974,-1.0973,-1.097,-1.097,-1.097,-1.097,-1.097,-1.097,-1.0918,-1.0923,-1.094,-1.0954,-1.0964,-1.0976,-1.0984,-1.0994,-1.1005,-1.1002,-1.1002,-1.0996,-1.0947,-1.0935,-1.0972,-1.0972,-1.0972,-1.0972,-1.0971,-1.0972,-1.0959,-1.0986,-1.0996,-1.1012,-1.103,-1.1027,-1.1048,-1.1056,-1.1066,-1.1059,-1.1022,-1.1018,-1.1014,-1.1004,-1.1058,-1.1058,-1.1058,-1.1058,-1.1001,-1.0999,-1.1026,-1.1042,-1.1057,-1.1058,-1.109,-1.1097,-1.1103,-1.1108,-1.11,-1.1086,-1.1082,-1.1081,-1.1076,-1.1066,-1.1134,-1.1134,-1.1135,-1.1035,-1.1034,-1.1061,-1.1065,-1.1078,-1.109,-1.112,-1.1139,-1.1143,-1.1138,-1.1112,-1.1109,-1.1087,-1.108,-1.1074,-1.1065,-1.1048,0,0]},{"header":{"parameterUnit":"m.s-1","parameterCategory":1,"la1":30.2992,"la2":30.254,"lo1":-89.0895,"lo2":-89.0443,"dy":0.0025,"dx":0.0025,"nx":19,"ny":19,"refTime":"2026-03-25T21:00:00:Z","depth":0,"parameterNumber":3,"parameterNumberName":"V-component_of_WINDS"},"data":[0,0,0,3.9624,3.9626,3.9718,3.9718,3.9837,3.9838,0,0,0,0,0,0,0,0,0,0,0,3.9599,3.96,3.9623,3.9626,3.9718,3.9718,3.9836,3.9838,0,0,0,0,0,0,0,0,0,0,0,3.9599,3.96,3.9601,3.9626,3.9718,3.9718,3.9836,3.9766,0,0,0,0,0,0,0,0,0,0,3.9676,3.9657,3.96,3.9601,3.9627,3.9718,3.9718,3.9762,3.977,3.9796,0,3.9822,0,3.9832,3.9846,3.9846,0,0,0,3.9623,3.965,3.9673,3.9601,3.9628,3.9718,3.9675,3.9767,3.9776,3.9806,3.9824,3.9828,3.9834,3.9847,3.9847,4.0013,4.0014,0,0,3.9618,3.9617,3.9667,3.9679,3.9668,3.9673,3.9678,3.9772,3.979,3.9824,3.9831,3.9836,3.9848,3.9848,4.0012,4.0013,0,0,0,3.9605,3.9613,3.9633,3.9674,3.9691,3.9675,3.9682,3.9785,3.9792,3.9832,3.9837,3.9848,3.985,4.0011,4.0012,4.0059,0,0,0,3.9602,3.9606,3.9631,3.9631,3.9689,3.974,3.9693,3.9786,3.9797,3.9837,3.9848,3.9851,4.001,4.0012,4.0055,4.008,0,0,0,3.9592,3.9605,3.9619,3.9631,3.9671,3.9738,3.9751,3.9788,3.98,3.9846,3.9851,4.0009,4.0011,4.0052,4.0075,4.0125,0,0,0,3.958,3.9657,3.962,3.9707,3.9671,3.9767,3.975,3.9821,3.9866,3.9849,4.001,4.0012,4.0051,4.0072,4.0121,4.0167,4.0186,0,0,3.9676,3.9668,3.972,3.9689,3.9793,3.9753,3.9862,3.9903,3.9906,3.9976,3.998,4.0056,4.0075,4.0124,4.029,4.0305,0,0,0,3.975,3.9787,3.9814,3.9859,3.9894,3.9926,3.995,3.9965,4.0026,3.9943,4.0087,4.0098,4.0127,4.0148,4.0161,4.0186,4.0022,4.0022,4.0022,3.9883,3.9886,3.9972,3.9987,4.003,4.0055,4.009,4.0114,4.0102,4.0136,4.0158,4.0258,4.0284,4.0293,4.0319,4.0181,4.0181,4.0181,4.0182,4.0024,4.0078,4.0063,4.0141,4.0143,4.0207,4.0234,4.0224,4.0282,4.0242,4.0268,4.0224,4.031,4.0333,4.0185,4.0184,4.0184,4.0184,4.0183,4.0113,4.0139,4.0158,4.0224,4.0274,4.0284,4.0343,4.0341,4.034,4.0365,4.0388,4.0387,4.0387,4.0376,4.0376,4.0377,4.0377,4.0377,4.0377,4.0198,4.0218,4.0269,4.0314,4.0343,4.038,4.0407,4.0434,4.0464,4.0459,4.0459,4.0444,4.0318,4.0287,4.0383,4.0382,4.0381,4.0381,4.038,4.0342,4.031,4.0388,4.0418,4.047,4.052,4.0518,4.0574,4.0596,4.0625,4.0605,4.0511,4.0502,4.0492,4.0467,4.0604,4.0604,4.0604,4.0604,4.0418,4.0414,4.0495,4.0542,4.0587,4.0594,4.0681,4.0702,4.0718,4.0732,4.0711,4.0677,4.0666,4.0663,4.065,4.0626,4.08,4.08,4.0801,4.0507,4.0507,4.0583,4.0601,4.0642,4.0676,4.0759,4.0811,4.0822,4.0808,4.0742,4.0734,4.0678,4.066,4.0645,4.0624,4.058,0,0]}]]